User: anonymous   Login
Location: Unspecified
(48.1170°N, 0.0000°E)
Time: 11:43:19
(UTC+00:00)
Language:

JY1SAT - Orbit

View from above orbital plane
View from above orbital plane
View from above satellite
View from above satellite

Ground track
Ground track

The orbit data is extracted from the following two-line orbital elements,

1 43803U 18099AX  19263.12206340 -.00000032  00000-0  23455-5 0  9994
2 43803  97.7354 333.8815 0015619  22.4916 337.6986 14.95313748 43387
Epoch (UTC): 20 September 2019 02:55:46
Eccentricity: 0.0015619
inclination: 97.7354°
perigee height: 570 km
apogee height: 592 km
right ascension of ascending node: 333.8815°
argument of perigee: 22.4916°
revolutions per day: 14.95313748
mean anomaly at epoch: 337.6986°
orbit number at epoch: 4338

The dashed part of the orbit path shows where the satellite is in the earth's shadow,  

DLR